Regional Weather Roundup
Issued by NWS

Home | Current Version | Previous Version | Text Only | Print | Product List | Glossary On
Versions: 1 2 3 4 5 6 7 8 9 10 11 12 13 14 15 16 17 18 19 20 21 22 23 24 25 26 27 28 29 30 31 32 33 34 35 36 37 38 39 40 41 42 43 44 45 46 47 48 49 50
000
ASUS44 KFWD 240103
RWRTX
NORTH TEXAS HOURLY WEATHER ROUNDUP
NATIONAL WEATHER SERVICE FORT WORTH TX
800 PM CDT SAT SEP 23 2017

NOTE: "FAIR" INDICATES FEW OR NO CLOUDS BELOW 12,000 FEET WITH NO
SIGNIFICANT WEATHER AND/OR OBSTRUCTIONS TO VISIBILITY.

TXZ118-119-240200-
DALLAS/FORT WORTH METROPLEX

CITY           SKY/WX    TMP DP  RH WIND       PRES   REMARKS
DFW AIRPORT    PTCLDY    87  64  46 SE10      29.84S
DALLAS LOVE    PTCLDY    88  63  43 SE10      29.85S
FTW MEACHAM    CLEAR     88  64  44 SE9       29.85R
DAL-EXECUTIVE  CLEAR     85  64  49 SE7       29.85S
FTW-ALLIANCE   PTCLDY    85  62  46 SE6       29.85S
FTW-NAS-JRB    CLEAR     89  60  37 SE8       29.85S
FTW-SPINKS     CLEAR     83  61  47 SE3       29.87S
ARLINGTON      CLEAR     85  64  49 E7        29.85S
GRAND PRAIRIE  CLEAR     86  61  42 E3        29.87R
MESQUITE       CLEAR     81  64  57 E5        29.86S
LANCASTER      CLEAR     86  63  46 SE6       29.87S
$$

TXZ091>094-102>105-117-120-121-131>134-240200-
NORTH CENTRAL TEXAS

CITY           SKY/WX    TMP DP  RH WIND       PRES   REMARKS
SHRMAN/DENISON CLEAR     82  65  57 E3        29.89S
GAINESVILLE    CLEAR     81  64  55 E6        29.90R
BOWIE          CLEAR     80  64  59 CALM      29.88R
BRIDGEPORT     CLEAR     82  63  52 CALM      29.88S
DECATUR        CLEAR     82  62  50 SE5       29.87S
DENTON         CLEAR     84  65  52 SE7       29.86R
MCKINNEY       CLEAR     84  68  58 SE6       29.87R
BONHAM         CLOUDY    83  67  59 SE24G31   29.90R
ROCKWALL       CLEAR     84  65  53 SE3       29.88R
TERRELL        PTCLDY    85  64  49 E6        29.88R
WAXAHACHIE     CLEAR     85  62  46 SE5       29.88R
CLEBURNE       CLEAR     84  64  51 SE9       29.88R
GRANBURY       CLEAR     87  60  40 SE7       29.87R
$$

TXZ083>090-098>101-113>116-127>130-139>142-154-155-240200-
WESTERN NORTH TEXAS

CITY           SKY/WX    TMP DP  RH WIND       PRES   REMARKS
WICHITA FALLS  CLEAR     82  62  50 SE10      29.85S
WF-KICKAPOO    CLEAR     83  64  52 SE7       29.88S
VERNON         CLEAR     85  55  35 SE12      29.85S
ABILENE        CLEAR     82  59  45 SE13      29.85S
ABILENE-DYESS  PTCLDY    84  62  46 SE13      29.83S
BRECKENRIDGE   CLEAR     85  57  38 SE10      29.86S
CISCO          CLEAR     82  61  47 SE13      29.88S
EASTLAND       CLEAR     83  61  47 SE9       29.87S
RANGER         CLEAR     82  59  46 SE7       29.88S
MINERAL WELLS  CLEAR     83  59  44 SE8       29.85R
STEPHENVILLE   CLEAR     82  59  45 SE7       29.90S
COMANCHE       CLEAR     83  61  48 SE9       29.88R
BROWNWOOD      PTCLDY    82  59  44 SE12      29.86S
COLEMAN        CLEAR     83  58  42 SE13      29.86S
$$

TXZ143>147-156>162-174-175-240200-
CENTRAL TEXAS

CITY           SKY/WX    TMP DP  RH WIND       PRES   REMARKS
WACO           CLEAR     85  65  51 SE9       29.85S
WACO-TSTC      CLEAR     84  64  51 SE5       29.85S
HILLSBORO      CLEAR     86  64  47 SE7       29.86S
CORSICANA      CLEAR     82  66  58 SE6       29.88R
MEXIA          CLEAR     82  65  56 E9        29.87R
HEARNE         CLEAR    N/A N/A N/A E3        29.87S
CAMERON        CLEAR     83  68  60 SE6       29.86R
TEMPLE         CLEAR     84  66  54 SE10      29.86S
KILLEEN        CLEAR     83  64  52 SE10      29.85S
FORT HOOD      CLEAR     83  65  55 SE9       29.83S
GATESVILLE     CLEAR     82  64  54 CALM      29.88R
HAMILTON       CLEAR     83  62  48 SE9       29.89R
LAMPASAS       CLEAR     83  65  54 SE6       29.86S
$$

TXZ095>097-106>112-122>126-135>138-148>153-164>167-240200-
EAST TEXAS

CITY           SKY/WX    TMP DP  RH WIND       PRES   REMARKS
PARIS          CLOUDY    82  69  64 SE6       29.90R
SULPHUR SPRNGS MOCLDY    79  68  69 CALM      29.91S
MOUNT PLEASANT CLEAR     76  73  92 CALM      29.90S
GILMER         CLEAR     79  69  71 CALM      29.89R
MINEOLA        MOCLDY    79  70  73 SE5       29.89R
TYLER          PTCLDY    77  73  87 CALM      29.89R
LONGVIEW       CLEAR     83  70  64 SE3       29.88R
MARSHALL       CLEAR     76  71  83 CALM      29.91S
ATHENS         CLEAR     82  64  54 CALM      29.87R
PALESTINE      CLEAR     82  70  66 CALM      29.89S
JACKSONVILLE   CLEAR     81  69  66 CALM      29.91S
HENDERSON      CLEAR     76  74  93 CALM      29.90R
CENTER         CLEAR     82  77  86 CALM      29.90S
NACOGDOCHES    CLEAR     78  72  81 E5        29.89S
$$

SUPPLEMENTAL OBSERVATIONS (NWS FORT WORTH AREA)

CITY           SKY/WX    TMP DP  RH WIND       PRES   REMARKS
$$

SUPPLEMENTAL OBSERVATIONS (NWS NORMAN AREA)

CITY           SKY/WX    TMP DP  RH WIND       PRES   REMARKS
GOODLETT         N/A     84  56  38 SE14      29.82F
ODELL            N/A     83  62  49 E15       29.86F
CROWELL          N/A     86  60  41 SE17      29.84S
KNOX CITY        N/A     87  54  32 SE16      29.83S
SEYMOUR          N/A     85  57  38 E15       29.85S
$$

SUPPLEMENTAL OBSERVATIONS (NWS SAN ANGELO AREA)

CITY           SKY/WX    TMP DP  RH WIND       PRES   REMARKS
HASKELL          N/A     85  55  35 SE10      29.84S
THROCKMORTON     N/A     84  61  45 SE12      29.86S
STAMFORD         N/A     86  60  41 SE13      29.84F
CLYDE            N/A     82  60  46 SE8       29.88S
$$

SUPPLEMENTAL OBSERVATIONS (NWS SHREVEPORT AREA)

CITY           SKY/WX    TMP DP  RH WIND       PRES   REMARKS
$$

SUPPLEMENTAL OBSERVATIONS ARE A COLLECTION OF AUTOMATED INSTRUMENTS
THAT ARE MAINTAINED BY A VARIETY OF FEDERAL AND STATE AGENCIES.
CERTAIN ELEMENTS...SUCH AS HUMIDITY VALUES AND SUSTAINED WIND
SPEEDS...MAY BE APPROXIMATED.





USA.gov is the U.S. government's official web portal to all federal, state and local government web resources and services.